"datetime","# probes","# resolvers","can_ipv6","can_ipv6_prbs","can_tcp","can_tcp_prbs","can_tcp6","can_tcp6_prbs","does_ecs","does_ecs_prbs","does_flagday","does_flagday_prbs","does_rov4","does_rov4_prbs","does_rov6","does_rov6_prbs","does_qnamemin","doesnt_qnamemin","does_qnamemin_prbs","doesnt_qnamemin_prbs","does_nxdomain","doesnt_nxdomain","does_nxdomain_prbs","doesnt_nxdomain_prbs","has_ta_19036","hasnt_ta_19036","has_ta_19036_prbs","hasnt_ta_19036_prbs","has_ta_20326","hasnt_ta_20326","has_ta_20326_prbs","hasnt_ta_20326_prbs","can_rsamd5","cannot_rsamd5","broken_rsamd5","can_rsamd5_prbs","cannot_rsamd5_prbs","broken_rsamd5_prbs","can_dsa","cannot_dsa","broken_dsa","can_dsa_prbs","cannot_dsa_prbs","broken_dsa_prbs","can_rsasha1","cannot_rsasha1","broken_rsasha1","can_rsasha1_prbs","cannot_rsasha1_prbs","broken_rsasha1_prbs","can_dsansec3","cannot_dsansec3","broken_dsansec3","can_dsansec3_prbs","cannot_dsansec3_prbs","broken_dsansec3_prbs","can_rsansec3","cannot_rsansec3","broken_rsansec3","can_rsansec3_prbs","cannot_rsansec3_prbs","broken_rsansec3_prbs","can_rsasha256","cannot_rsasha256","broken_rsasha256","can_rsasha256_prbs","cannot_rsasha256_prbs","broken_rsasha256_prbs","can_rsasha512","cannot_rsasha512","broken_rsasha512","can_rsasha512_prbs","cannot_rsasha512_prbs","broken_rsasha512_prbs","can_eccgost","cannot_eccgost","broken_eccgost","can_eccgost_prbs","cannot_eccgost_prbs","broken_eccgost_prbs","can_ecdsa256","cannot_ecdsa256","broken_ecdsa256","can_ecdsa256_prbs","cannot_ecdsa256_prbs","broken_ecdsa256_prbs","can_ecdsa384","cannot_ecdsa384","broken_ecdsa384","can_ecdsa384_prbs","cannot_ecdsa384_prbs","broken_ecdsa384_prbs","can_ed25519","cannot_ed25519","broken_ed25519","can_ed25519_prbs","cannot_ed25519_prbs","broken_ed25519_prbs","can_ed448","cannot_ed448","broken_ed448","can_ed448_prbs","cannot_ed448_prbs","broken_ed448_prbs","can_gost","cannot_gost","broken_gost","can_gost_prbs","cannot_gost_prbs","broken_gost_prbs","can_sha384","cannot_sha384","broken_sha384","can_sha384_prbs","cannot_sha384_prbs","broken_sha384_prbs","is_internal","is_forwarding","is_external","is_internal_prbs","is_forwarding_prbs","is_external_prbs"
2017-06-20T23:59:59Z,247,445,442,244,445,247,438,244,74,61,0,0,0,0,0,0,2,443,1,246,0,443,0,245,0,0,0,0,0,0,0,0,353,16,76,191,30,57,371,74,0,201,67,1,444,1,0,247,21,1,369,76,0,200,69,1,443,2,0,246,22,1,443,2,0,246,22,1,444,1,0,246,21,1,19,424,2,16,236,2,445,0,0,247,20,1,443,1,1,247,21,2,0,443,2,0,246,2,0,443,2,0,246,2,87,356,2,64,204,2,443,2,0,246,22,1,363,25,57,202,31,46
2017-06-21T23:59:59Z,246,451,448,243,451,246,444,243,78,63,0,0,0,0,0,0,2,449,1,245,0,449,0,244,0,0,0,0,0,0,0,0,353,17,80,189,31,60,374,76,0,200,69,1,449,1,0,245,21,1,375,76,0,200,69,1,449,2,0,245,22,1,449,2,0,245,22,1,449,2,0,245,22,1,19,430,2,16,235,2,451,0,0,246,20,1,451,0,0,246,20,1,0,449,2,0,245,2,0,449,2,0,245,2,87,362,2,64,203,2,450,1,0,245,21,1,369,24,58,202,30,46
2017-06-22T23:59:59Z,248,450,447,245,450,248,441,244,75,59,0,0,0,0,0,0,2,448,1,247,0,448,0,246,0,0,0,0,0,0,0,0,352,17,80,190,30,60,372,77,0,202,68,1,448,1,0,247,21,1,372,78,0,201,69,1,450,0,0,248,19,1,449,1,0,247,20,1,449,1,0,247,20,1,19,429,2,16,237,2,450,0,0,248,20,1,449,0,1,247,20,2,0,447,3,0,246,3,0,448,2,0,247,2,90,358,2,65,204,2,449,1,0,247,21,1,367,25,58,204,30,45
2017-06-23T23:59:58Z,249,455,452,246,454,249,451,246,80,61,0,0,0,0,0,0,2,453,1,248,0,454,0,248,0,0,0,0,0,0,0,0,356,16,82,192,29,59,374,80,0,201,69,1,452,2,0,247,21,1,375,80,0,201,70,1,452,3,0,246,22,1,453,2,0,247,21,1,452,3,0,247,22,1,19,434,2,16,238,2,455,0,0,249,19,1,453,2,0,248,21,1,0,453,2,0,248,2,0,453,2,0,248,2,92,361,2,66,205,2,452,3,0,247,22,1,368,28,59,203,32,45
2017-06-24T23:59:59Z,250,455,452,247,454,250,447,247,81,63,0,0,0,0,0,0,2,453,1,249,0,453,0,248,0,0,0,0,0,0,0,0,355,16,83,192,31,61,374,81,0,202,71,1,453,1,0,249,21,1,374,81,0,202,70,1,453,2,0,248,22,1,453,2,0,248,22,1,453,2,0,248,23,1,19,434,2,16,239,2,455,0,0,250,21,1,454,1,0,249,22,1,0,453,2,0,249,2,0,453,2,0,249,2,92,361,2,66,206,2,453,1,1,248,21,2,368,27,60,204,31,46
2017-06-25T23:59:59Z,251,455,452,248,455,251,449,246,78,60,0,0,0,0,0,0,0,455,0,251,0,452,0,249,0,0,0,0,0,0,0,0,356,17,82,194,31,61,373,82,0,203,72,2,452,3,0,249,23,2,375,80,0,203,70,2,453,2,0,250,22,2,454,1,0,250,21,2,453,2,0,250,22,2,19,436,0,16,241,2,455,0,0,251,20,2,452,3,0,249,23,2,0,455,0,0,251,2,0,455,0,0,251,2,92,363,0,66,208,2,453,2,0,249,22,2,368,27,60,205,31,46
2017-06-26T23:59:59Z,253,459,456,250,459,253,437,249,81,64,0,0,0,0,0,0,2,457,1,252,0,456,0,250,0,0,0,0,0,0,0,0,358,17,84,194,32,61,375,84,0,203,74,1,456,3,0,250,24,1,376,83,0,203,73,1,457,2,0,251,23,1,456,3,0,251,24,1,457,2,0,251,23,1,19,438,2,16,242,2,459,0,0,253,21,1,459,0,0,253,21,1,0,457,2,0,252,2,0,457,2,0,252,2,93,364,2,67,208,2,457,2,0,252,23,1,371,28,60,206,33,47
2017-06-27T23:59:59Z,250,455,452,247,455,250,438,246,80,62,0,0,0,0,0,0,2,453,1,249,0,452,0,247,0,0,0,0,0,0,0,0,355,18,82,192,31,59,374,81,0,202,70,1,453,2,0,248,21,1,375,80,0,202,69,1,453,2,0,248,21,1,452,3,0,248,22,1,453,2,0,248,21,1,18,435,2,15,240,2,455,0,0,250,19,1,454,1,0,249,20,1,0,453,2,0,249,2,0,453,2,0,249,2,92,361,2,66,205,2,455,0,0,250,19,1,372,26,57,207,30,45
2017-06-28T23:59:59Z,252,456,453,249,456,252,442,248,79,60,0,0,0,0,0,0,4,452,2,250,0,453,0,249,0,0,0,0,0,0,0,0,357,15,84,195,29,61,377,79,0,205,69,2,455,1,0,251,20,2,377,79,0,205,68,1,455,1,0,251,21,2,455,1,0,251,21,2,455,1,0,251,20,2,19,433,4,16,240,4,456,0,0,252,20,2,455,1,0,251,20,2,0,452,4,1,250,3,0,452,4,0,250,4,91,361,4,65,207,4,454,2,0,250,22,2,370,27,59,207,31,45
2017-06-29T23:59:59Z,250,453,450,247,452,249,438,244,82,64,0,0,0,0,0,0,2,451,1,249,0,450,0,247,0,0,0,0,0,0,0,0,355,15,83,193,30,60,375,78,0,204,68,1,453,0,0,250,20,1,374,79,0,203,68,1,453,0,0,250,21,1,453,0,0,250,20,1,453,0,0,250,21,1,18,433,2,15,240,2,453,0,0,250,21,1,453,0,0,250,21,1,0,451,2,0,249,2,0,451,2,0,249,2,93,358,2,67,205,2,452,1,0,249,21,1,366,27,60,204,31,46
2017-06-30T23:59:59Z,250,454,451,247,454,250,442,246,80,60,0,0,0,0,0,0,2,452,1,249,0,451,0,247,0,0,0,0,0,0,0,0,356,16,82,194,28,59,375,79,0,204,67,1,453,1,0,249,19,1,374,80,0,203,68,1,452,2,0,249,20,1,451,3,0,248,21,1,453,1,0,249,19,1,18,434,2,15,240,2,454,0,0,250,18,1,452,2,0,249,20,1,0,452,2,0,249,2,0,451,3,0,249,3,90,362,2,64,207,2,453,1,0,249,19,1,369,28,57,205,31,44
2017-07-01T23:59:59Z,252,456,453,249,456,252,435,249,75,58,0,0,0,0,0,0,4,452,2,250,0,453,0,249,0,0,0,0,0,0,0,0,359,16,81,197,29,58,380,76,0,207,67,1,456,0,0,252,20,1,379,77,0,207,68,1,454,1,1,250,21,2,455,1,0,251,21,1,454,2,0,250,22,1,19,433,4,16,240,3,456,0,0,252,20,1,456,0,0,252,20,1,0,452,4,0,250,3,0,452,4,0,250,3,90,362,4,65,208,3,454,2,0,250,21,1,374,23,59,210,28,45
2017-07-02T23:59:59Z,250,454,451,247,454,250,431,243,77,58,0,0,0,0,0,0,4,450,2,248,0,451,0,247,0,0,0,0,0,0,0,0,356,16,82,194,29,59,378,76,0,205,65,1,454,0,0,250,20,1,377,77,0,204,67,1,453,1,0,249,21,1,453,1,0,249,21,1,453,1,0,249,21,1,18,432,4,15,239,3,454,0,0,250,20,1,454,0,0,250,20,1,0,450,4,0,248,3,0,450,4,0,248,3,89,361,4,64,207,3,453,1,0,249,20,1,373,23,58,208,27,45
2017-07-03T23:59:59Z,252,454,451,249,454,252,429,246,79,61,0,0,0,0,0,0,4,450,2,250,0,451,1,249,0,0,0,0,0,0,0,0,358,16,80,196,29,60,376,78,0,207,68,2,452,2,0,251,22,2,375,79,0,205,69,2,452,2,0,250,22,2,453,1,0,251,21,2,453,1,0,251,21,2,19,431,4,16,240,4,454,0,0,252,20,2,452,1,1,251,21,3,0,450,4,0,250,4,0,450,4,0,250,4,92,358,4,66,207,4,452,2,0,251,22,2,371,25,58,208,30,46
2017-07-04T23:59:59Z,255,465,462,252,465,255,437,249,83,63,0,0,0,0,0,0,2,463,1,254,0,462,1,252,0,0,0,0,0,0,0,0,362,18,84,198,32,61,379,84,1,207,72,3,464,1,0,254,23,2,384,80,0,210,68,2,463,2,0,253,23,2,463,1,0,254,22,2,463,1,0,254,22,2,22,441,2,18,244,3,465,0,0,255,22,2,465,0,0,255,21,2,0,463,2,0,254,3,0,462,3,0,254,4,94,369,2,66,212,3,464,0,0,255,22,2,375,27,63,210,32,48
2017-07-05T23:59:59Z,253,463,460,250,463,253,440,248,85,64,0,0,0,0,0,0,0,463,0,253,0,460,1,250,0,0,0,0,0,0,0,0,363,16,83,197,30,61,380,82,0,206,69,2,462,1,0,253,21,2,377,85,0,205,72,2,463,0,0,253,20,2,462,0,0,253,20,2,461,1,0,253,21,2,19,444,0,16,243,2,463,0,0,253,20,2,462,1,0,253,21,2,0,463,0,0,253,2,0,463,0,0,253,2,96,367,0,68,210,2,460,2,0,252,22,2,372,26,65,206,31,49
2017-07-06T23:59:59Z,253,464,460,249,464,253,414,238,84,64,0,0,0,0,0,0,0,464,0,253,0,461,1,250,0,0,0,0,0,0,0,0,364,15,84,196,29,62,381,82,0,206,70,2,464,0,0,253,20,2,382,81,0,207,69,2,464,0,0,253,20,2,463,0,0,253,20,2,463,0,0,253,19,2,18,446,0,15,244,2,464,0,0,253,20,2,464,0,0,253,19,2,0,464,0,0,253,2,0,464,0,0,253,2,99,365,0,70,206,2,462,0,0,252,19,2,373,26,65,206,32,49
2017-07-07T23:59:59Z,254,468,464,250,468,254,463,249,86,65,0,0,0,0,0,0,0,468,0,254,0,465,1,251,0,0,0,0,0,0,0,0,365,16,86,196,29,63,384,84,0,206,71,2,467,0,1,254,19,3,385,81,1,207,68,3,467,1,0,253,21,2,465,1,1,253,20,3,466,1,0,253,21,2,18,450,0,15,245,2,468,0,0,254,20,2,466,1,1,252,20,3,0,468,0,0,254,2,0,468,0,0,254,2,97,371,0,69,209,2,466,0,0,253,19,2,375,28,65,205,34,49
2017-07-08T23:59:59Z,254,466,462,250,466,254,461,249,83,63,0,0,0,0,0,0,0,466,0,254,0,462,1,250,0,0,0,0,0,0,0,0,366,16,83,197,29,62,387,79,0,209,69,2,466,0,0,254,18,2,386,79,0,208,67,2,466,0,0,254,18,2,464,0,1,253,19,3,465,0,0,254,19,2,19,447,0,16,244,2,466,0,0,254,19,2,466,0,0,254,19,2,0,466,0,0,254,2,0,466,0,0,254,2,94,372,0,68,209,2,463,0,1,252,18,3,378,27,61,207,32,47
2017-07-09T23:59:59Z,255,469,465,251,469,255,462,250,80,61,0,0,0,0,0,0,0,469,0,255,0,466,1,252,0,0,0,0,0,0,0,0,367,16,85,197,28,64,389,80,0,209,69,2,469,0,0,255,18,2,389,79,0,208,67,2,467,2,0,254,20,2,466,2,0,254,20,2,467,1,0,254,19,2,19,450,0,16,245,2,469,0,0,255,18,2,469,0,0,255,18,2,0,469,0,0,255,2,0,469,0,0,255,2,94,375,0,68,210,2,467,0,0,254,18,2,382,26,61,210,30,47
2017-07-10T23:59:59Z,261,480,475,257,479,261,473,256,83,65,0,0,0,0,0,0,0,480,0,261,0,476,1,257,0,0,0,0,0,0,0,0,378,17,84,203,32,63,398,81,1,213,73,3,479,1,0,260,21,2,397,82,0,213,72,2,478,2,0,259,23,2,477,2,0,259,23,2,478,1,0,260,21,2,19,461,0,16,251,2,480,0,0,261,21,2,479,1,0,260,21,2,0,480,0,0,261,2,0,480,0,0,261,2,99,381,0,72,213,2,477,0,0,260,21,2,388,29,63,212,36,48
2017-07-11T23:59:59Z,260,473,468,255,472,259,467,254,84,66,0,0,0,0,0,0,0,473,0,260,0,470,1,257,0,0,0,0,0,0,0,0,372,16,84,200,30,64,390,83,0,210,72,2,473,0,0,260,19,2,389,83,0,210,73,2,473,0,0,260,20,2,471,0,1,259,19,3,472,0,0,260,20,2,20,453,0,17,249,2,473,0,0,260,20,2,472,1,0,259,21,2,0,473,0,0,260,2,0,473,0,0,260,2,99,374,0,72,211,2,469,1,0,257,20,2,381,29,63,211,34,48
2017-07-12T23:59:59Z,261,473,469,257,472,261,469,257,85,66,0,0,0,0,0,0,0,473,0,261,0,470,1,258,0,0,0,0,0,0,0,0,370,16,86,200,29,65,388,85,0,210,73,2,471,2,0,260,21,2,384,88,0,208,76,2,472,1,0,260,20,2,471,1,0,260,20,2,471,1,0,260,20,2,20,453,0,17,250,2,473,0,0,261,19,2,472,1,0,260,20,2,0,473,0,0,261,2,0,473,0,0,261,2,99,374,0,73,212,2,470,1,0,259,20,2,381,29,63,211,33,49
2017-07-13T23:59:59Z,262,470,466,258,470,262,465,257,85,67,0,0,0,0,0,0,0,470,0,262,0,466,1,259,0,0,0,0,0,0,0,0,368,16,85,201,30,65,385,85,0,210,75,2,470,0,0,262,21,2,385,84,0,211,74,2,468,2,0,260,22,2,467,2,0,260,23,2,469,0,0,262,20,2,20,450,0,17,251,2,470,0,0,262,21,2,470,0,0,262,21,2,0,470,0,0,262,2,0,470,0,0,262,2,99,371,0,73,213,2,467,1,0,259,21,2,376,29,65,210,35,50
2017-07-14T23:59:59Z,260,470,466,256,470,260,465,255,89,68,0,0,0,0,0,0,0,470,0,260,0,465,1,255,0,0,0,0,0,0,0,0,365,18,86,197,29,66,384,86,0,208,74,2,466,3,1,258,20,3,384,85,0,209,72,2,468,2,0,259,20,2,467,2,0,259,19,2,467,2,0,259,20,2,19,450,1,16,250,3,470,0,0,260,20,2,469,1,0,259,20,2,0,470,0,0,260,2,0,470,0,0,260,2,98,372,0,72,211,2,465,3,0,256,20,2,377,31,62,209,35,48
2017-07-15T23:59:58Z,259,470,466,255,470,259,465,254,86,67,0,0,0,0,0,0,2,468,1,258,0,467,0,256,0,0,0,0,0,0,0,0,364,17,88,197,32,65,384,86,0,207,75,1,468,2,0,257,23,1,382,86,1,206,75,2,469,1,0,258,21,1,468,1,0,258,21,1,468,1,0,258,22,1,22,446,2,19,247,2,470,0,0,259,21,1,469,1,0,258,22,1,0,468,2,0,258,2,0,468,2,0,258,2,101,367,2,74,209,2,467,1,0,256,21,1,376,29,65,207,35,50
2017-07-16T23:59:59Z,260,472,466,255,472,260,465,254,89,69,0,0,0,0,0,0,3,469,2,258,0,468,0,256,0,0,0,0,0,0,0,0,361,21,89,197,33,66,384,88,0,209,76,1,471,1,0,260,21,1,384,87,0,211,75,1,470,2,0,258,22,1,470,1,0,259,21,1,468,3,0,258,23,1,20,450,2,17,248,2,472,0,0,260,20,1,472,0,0,260,20,1,0,470,2,0,259,2,0,470,2,0,259,2,100,370,2,73,211,2,468,2,0,257,22,1,377,30,65,209,34,50
2017-07-17T23:59:59Z,256,465,459,250,465,256,458,249,85,66,0,0,0,0,0,0,2,463,1,255,0,462,0,253,0,0,0,0,0,0,0,0,357,21,86,193,32,64,382,83,0,208,72,1,464,1,0,256,20,1,380,84,0,208,73,1,463,2,0,255,21,1,462,2,0,255,21,1,463,1,0,256,20,1,19,444,2,16,245,2,465,0,0,256,19,1,464,1,0,255,20,1,0,463,2,0,255,2,0,463,2,0,255,2,99,364,2,71,207,2,462,1,0,254,20,1,374,28,63,208,33,49
2017-07-18T23:59:59Z,258,466,460,252,466,258,459,252,88,67,0,0,0,0,0,0,2,464,1,257,0,463,0,255,0,0,0,0,0,0,0,0,357,23,85,194,33,64,380,86,0,208,72,1,463,3,0,257,20,1,378,87,0,207,73,1,463,3,0,256,20,1,463,2,0,257,21,1,464,1,0,257,20,1,20,444,2,17,246,2,466,0,0,258,19,1,465,1,0,257,20,1,0,464,2,0,257,2,0,464,2,0,257,2,99,365,2,72,209,2,463,1,0,255,20,1,373,31,62,208,33,48
2017-07-19T23:59:59Z,256,461,455,250,461,256,454,249,85,66,0,0,0,0,0,0,0,461,0,256,0,457,0,252,0,0,0,0,0,0,0,0,355,20,85,194,33,63,378,83,0,208,72,1,461,0,0,256,18,1,377,83,0,208,72,1,460,1,0,255,20,1,460,0,0,256,18,1,460,0,0,256,18,1,19,442,0,16,246,1,461,0,0,256,19,1,460,0,1,255,19,2,0,461,0,0,256,1,0,460,1,0,256,2,100,361,0,74,207,1,460,0,0,255,18,1,369,30,62,206,33,48
2017-07-20T23:59:58Z,257,464,458,251,464,257,457,251,84,65,0,0,0,0,0,0,0,464,0,257,0,459,0,252,0,0,0,0,0,0,0,0,362,17,83,199,30,61,382,81,0,209,70,1,464,0,0,257,18,1,381,81,0,209,71,1,461,1,1,255,19,2,460,2,0,254,20,1,461,1,0,255,20,1,20,444,0,17,246,1,464,0,0,257,19,1,462,1,0,255,20,1,0,463,1,1,256,2,1,463,0,1,256,2,97,367,0,71,211,1,461,1,0,254,19,1,373,28,63,209,32,48
2017-07-21T23:59:59Z,258,466,460,252,466,258,460,252,84,66,0,0,0,0,0,0,2,464,1,257,0,462,0,254,0,0,0,0,0,0,0,0,359,19,87,197,32,64,383,83,0,211,73,1,465,1,0,258,20,1,383,82,0,211,72,1,466,0,0,258,19,1,464,0,0,257,19,1,463,1,0,258,20,1,19,444,3,16,247,3,466,0,0,258,19,1,464,1,0,257,20,1,0,464,2,0,257,2,0,464,2,0,257,2,97,367,2,71,209,2,464,0,0,256,19,1,375,28,63,210,32,49
2017-07-22T23:59:58Z,258,465,459,252,465,258,457,251,82,64,0,0,0,0,0,0,2,463,1,257,0,461,0,254,0,0,0,0,0,0,0,0,358,19,87,196,32,64,384,81,0,211,70,1,465,0,0,258,18,1,382,82,0,210,71,1,463,2,0,256,21,1,462,1,0,256,19,1,462,1,0,257,19,1,20,443,2,17,246,2,465,0,0,258,19,1,464,0,0,257,18,1,0,462,3,0,257,3,0,463,2,0,257,2,96,367,2,70,210,2,463,0,0,256,19,1,373,29,63,209,33,48
2017-07-23T23:59:59Z,256,465,458,250,465,256,458,250,86,63,0,0,0,0,0,0,2,462,1,255,0,460,0,252,0,0,0,0,0,0,0,0,357,20,86,195,30,63,380,85,0,208,71,1,463,2,0,255,19,1,378,86,0,207,72,1,462,3,0,254,20,1,460,3,0,253,19,1,460,3,0,254,20,1,20,443,2,17,244,2,465,0,0,256,19,1,463,1,0,255,19,1,0,463,2,0,255,2,0,463,2,0,255,2,99,364,2,71,207,2,462,0,0,254,19,1,373,29,63,209,31,48
2017-07-24T23:59:59Z,259,468,462,253,468,259,461,252,84,64,0,0,0,0,0,0,2,466,1,258,0,464,0,255,0,0,0,0,0,0,0,0,361,19,87,199,30,63,386,82,0,213,69,1,467,1,0,259,18,1,386,81,0,214,69,1,467,1,0,259,18,1,466,0,0,258,17,1,465,1,0,258,18,1,20,446,2,17,247,2,468,0,0,259,17,1,467,0,0,258,17,1,0,466,2,0,258,2,0,466,2,0,258,2,99,367,2,71,210,2,465,1,0,256,18,1,378,27,63,212,30,48
2017-07-25T23:59:59Z,260,469,463,254,469,260,461,253,82,65,0,0,0,0,0,0,2,467,1,259,0,466,0,257,0,0,0,0,0,0,0,0,361,21,86,198,34,63,386,83,0,212,73,1,468,1,0,259,20,1,384,84,0,211,74,1,468,1,0,259,20,1,466,1,0,258,20,1,466,1,0,259,20,1,20,447,2,17,248,2,469,0,0,260,19,1,467,1,0,259,20,1,0,467,2,0,259,2,0,467,2,0,259,2,98,369,2,72,210,2,466,1,0,258,20,1,378,26,65,212,31,50
2017-07-26T23:59:59Z,260,467,462,255,467,260,460,254,82,65,0,0,0,0,0,0,2,465,1,259,0,464,0,257,0,0,0,0,0,0,0,0,360,19,87,198,34,64,384,83,0,211,74,1,466,1,0,259,22,1,383,83,0,212,74,1,467,0,0,260,20,1,465,0,0,259,20,1,465,0,0,260,20,1,21,444,2,18,247,2,467,0,0,260,21,1,466,0,0,259,20,1,0,465,2,0,259,2,0,465,2,0,259,2,100,365,2,74,209,2,465,0,0,258,20,1,375,27,65,211,31,50
2017-07-27T23:59:59Z,257,460,455,252,460,257,454,251,83,64,0,0,0,0,0,0,2,458,1,256,0,456,1,253,0,0,0,0,0,0,0,0,357,19,83,198,31,62,379,81,0,211,71,2,460,0,0,257,19,1,379,80,0,211,69,2,460,0,0,257,19,1,457,1,0,255,20,1,457,1,0,256,19,1,20,438,2,17,245,3,460,0,0,257,19,1,459,0,0,256,18,1,0,458,2,0,256,2,0,458,2,0,256,2,98,360,2,73,208,2,458,0,0,255,19,2,369,27,64,209,31,48
2017-07-28T23:59:59Z,253,460,455,248,460,253,454,247,84,64,0,0,0,0,0,0,0,460,0,253,0,457,0,250,0,0,0,0,0,0,0,0,355,19,85,195,31,62,379,81,0,208,69,1,460,0,0,253,19,1,379,80,0,209,68,1,460,0,0,253,18,1,459,0,0,252,19,1,458,0,0,253,18,1,20,439,1,17,242,2,460,0,0,253,19,1,459,0,0,252,19,1,0,460,0,0,253,1,0,460,0,0,253,1,98,362,0,71,207,1,458,0,0,251,18,1,369,25,66,207,29,49
2017-07-29T23:59:59Z,254,456,451,249,456,254,450,248,83,62,0,0,0,0,0,0,0,456,0,254,0,452,0,250,0,0,0,0,0,0,0,0,353,20,82,195,32,59,376,80,0,208,67,1,455,1,0,253,19,1,375,80,0,208,67,1,453,1,2,252,19,3,454,1,0,252,18,1,453,1,0,253,18,1,21,435,0,18,242,1,456,0,0,254,18,1,455,0,0,253,17,1,0,456,0,0,254,1,0,456,0,0,254,1,95,361,0,68,208,1,452,1,1,250,18,1,367,26,63,207,29,47
2017-07-30T23:59:59Z,255,457,452,250,457,255,452,250,82,64,0,0,0,0,0,0,0,457,0,255,0,454,0,252,0,0,0,0,0,0,0,0,353,18,85,196,32,62,375,82,0,208,71,1,457,0,0,255,20,1,375,81,0,209,71,1,456,1,0,254,20,1,455,1,0,253,20,1,454,1,0,254,21,1,21,436,0,18,243,1,457,0,0,255,20,1,456,0,0,254,19,1,0,457,0,0,255,1,0,457,0,0,255,1,97,360,0,70,207,1,454,1,0,252,20,1,366,26,65,207,30,49
2017-07-31T23:59:59Z,256,457,451,250,457,256,451,250,86,66,0,0,0,0,0,0,0,457,0,256,0,454,0,253,0,0,0,0,0,0,0,0,353,20,84,196,32,62,373,84,0,208,71,2,455,2,0,255,20,2,374,82,0,208,69,2,455,2,0,255,20,1,455,1,0,254,19,1,454,1,0,255,19,2,21,436,0,18,244,1,457,0,0,256,18,2,455,1,0,255,19,2,0,457,0,0,256,2,0,457,0,0,256,2,98,359,0,71,208,2,454,1,0,254,19,1,365,27,65,206,31,49
2017-08-01T23:59:59Z,257,460,455,252,460,257,453,250,86,66,0,0,0,0,0,0,2,458,1,256,0,457,0,254,0,0,0,0,0,0,0,0,355,20,85,196,33,62,376,84,0,208,72,1,459,1,0,256,20,1,375,84,0,209,72,1,459,1,0,257,20,1,459,0,0,256,19,1,458,0,0,257,19,1,20,438,2,17,245,2,460,0,0,257,19,1,458,1,0,256,20,2,0,458,2,0,256,2,0,457,3,0,255,4,98,360,2,71,208,2,458,0,0,255,19,1,368,26,66,208,30,49
2017-08-02T23:59:59Z,256,456,451,251,456,256,450,250,82,63,0,0,0,0,0,0,2,454,1,255,0,453,0,253,0,0,0,0,0,0,0,0,353,18,85,196,30,62,376,80,0,210,69,1,456,0,0,256,18,1,374,81,0,209,70,1,455,1,0,255,19,1,454,1,0,254,19,1,453,1,0,255,19,1,21,433,2,18,243,2,456,0,0,256,19,1,455,0,0,255,19,1,0,454,2,0,255,2,0,454,2,0,255,2,96,358,2,69,208,2,454,0,0,254,19,1,365,26,65,208,30,48
2017-08-03T23:59:59Z,257,460,455,252,460,257,454,251,86,64,0,0,0,0,0,0,2,458,1,256,0,457,0,254,0,0,0,0,0,0,0,0,355,20,85,197,31,61,377,83,0,209,69,1,458,2,0,256,19,1,376,83,0,209,70,1,458,2,0,256,20,1,457,2,0,255,19,1,456,2,0,256,20,1,20,438,2,17,245,2,460,0,0,257,20,1,459,0,0,256,19,1,0,458,2,0,256,2,0,458,2,0,256,2,98,360,2,71,209,2,458,0,0,255,20,1,367,29,64,207,31,48
2017-08-04T23:59:58Z,257,459,454,252,459,257,452,251,81,62,0,0,0,0,0,0,2,457,1,256,0,456,0,254,0,0,0,0,0,0,0,0,356,18,85,199,30,61,377,82,0,210,70,1,459,0,0,257,19,1,378,80,0,211,68,1,459,0,0,257,19,1,458,0,0,256,18,1,456,1,0,256,19,1,20,437,2,17,245,2,459,0,0,257,19,1,458,0,0,256,18,1,0,457,2,0,256,2,0,456,3,0,256,3,95,362,2,68,210,2,456,1,0,254,20,1,369,25,65,210,29,48
2017-08-05T23:59:59Z,260,463,458,255,463,260,457,254,85,65,0,0,0,0,0,0,2,461,1,259,0,460,0,257,0,0,0,0,0,0,0,0,359,20,84,201,32,61,380,83,0,213,71,1,461,2,0,259,20,1,381,81,0,214,71,1,462,1,0,259,20,1,461,1,0,258,21,1,460,1,0,259,21,1,23,438,2,19,248,2,463,0,0,260,20,1,462,0,0,259,20,1,0,461,2,0,259,2,0,461,2,0,259,2,100,361,2,72,209,2,458,2,1,257,20,2,369,28,66,210,31,49
2017-08-06T23:59:59Z,259,460,454,253,460,259,453,252,89,68,0,0,0,0,0,0,0,460,0,259,0,457,0,256,0,0,0,0,0,0,0,0,359,19,82,201,32,60,379,81,0,213,70,1,458,2,0,258,20,1,376,83,0,211,70,1,458,2,0,258,19,1,457,2,0,257,20,1,456,2,0,258,20,1,21,439,0,18,247,1,460,0,0,259,20,1,457,2,0,257,19,1,0,460,0,0,259,1,0,460,0,0,259,1,100,360,0,72,209,1,456,2,0,256,20,1,364,29,67,207,33,50
2017-08-07T23:59:59Z,254,453,448,249,453,254,446,248,83,63,0,0,0,0,0,0,0,453,0,254,0,450,0,251,0,0,0,0,0,0,0,0,354,19,80,197,31,58,375,78,0,209,66,1,453,0,0,254,17,1,373,79,0,208,67,1,453,0,0,254,17,1,452,0,0,253,18,1,451,0,0,254,18,1,19,434,0,16,244,1,453,0,0,254,18,1,452,0,0,253,18,1,0,453,0,0,254,1,0,453,0,0,254,1,96,357,0,70,207,1,451,0,0,252,17,1,362,29,62,204,32,47
2017-08-08T23:59:59Z,255,458,452,249,458,255,451,248,81,62,0,0,0,0,0,0,2,456,1,254,0,456,0,253,0,0,0,0,0,0,0,0,358,18,82,198,28,59,381,77,0,211,65,1,457,1,0,255,17,1,378,79,0,209,67,1,457,1,0,254,17,1,456,1,0,253,17,1,454,2,0,254,18,1,20,436,2,17,243,2,458,0,0,255,16,1,456,1,0,254,17,1,0,456,2,0,254,2,0,456,2,0,254,2,93,363,2,67,208,2,456,0,0,253,16,1,366,28,64,206,32,48
2017-08-09T23:59:59Z,257,459,453,251,459,257,452,251,84,64,0,0,0,0,0,0,3,456,2,255,0,455,0,253,0,0,0,0,0,0,0,0,361,18,80,201,32,58,381,78,0,212,70,1,459,0,0,257,19,1,379,80,0,212,69,1,457,2,0,256,19,1,456,2,0,255,20,1,456,2,0,256,19,1,21,436,2,18,244,2,459,0,0,257,20,1,458,0,0,256,19,1,1,456,2,1,256,2,1,456,2,1,255,2,94,363,2,68,209,2,454,2,1,253,19,2,365,30,64,207,34,50
2017-08-10T23:59:58Z,256,457,450,250,456,255,449,249,86,64,0,0,0,0,0,0,2,455,1,255,0,454,0,253,0,0,0,0,0,0,0,0,354,19,84,198,29,60,376,80,1,210,67,2,456,1,0,255,17,1,377,80,0,211,67,1,456,0,1,255,16,2,454,1,1,254,17,2,455,1,0,256,17,1,21,434,2,17,244,2,457,0,0,256,16,1,454,2,0,254,18,1,1,454,2,1,254,2,0,455,2,0,255,2,98,357,2,69,207,2,454,0,1,253,16,2,361,29,67,205,32,49
2017-08-11T23:59:59Z,256,457,450,250,456,255,449,249,84,63,0,0,0,0,0,0,3,454,2,254,0,454,0,253,0,0,0,0,0,0,0,0,353,19,84,198,29,59,377,79,0,210,66,1,455,1,0,256,17,1,375,81,0,208,68,1,456,0,0,256,16,1,454,1,0,255,17,1,455,0,0,256,16,1,20,434,2,17,244,2,457,0,0,256,16,1,455,0,1,254,16,2,0,455,2,0,255,2,0,455,2,0,255,2,97,357,2,70,206,2,455,0,0,254,16,1,362,29,66,205,32,49
2017-08-12T23:59:59Z,259,459,452,253,458,258,452,253,84,64,0,0,0,0,0,0,2,457,1,258,0,456,0,256,0,0,0,0,0,0,0,0,356,19,83,199,31,61,375,83,0,210,71,2,457,1,0,259,19,2,377,81,0,212,69,2,458,1,0,259,19,2,457,1,0,258,19,2,457,1,0,259,19,2,22,434,3,18,245,4,459,0,0,259,18,2,456,1,1,257,19,3,2,455,2,2,257,3,0,456,3,0,257,4,98,358,2,71,209,3,456,1,0,257,19,1,363,29,67,207,33,51
2017-08-13T23:59:59Z,258,463,454,252,463,258,453,251,85,65,0,0,0,0,0,0,2,461,1,257,0,460,0,255,0,0,0,0,0,0,0,0,358,20,85,198,30,62,381,82,0,210,71,1,463,0,0,258,19,1,382,81,0,210,70,1,463,0,0,258,19,1,462,0,0,257,19,1,462,0,0,258,18,1,21,440,2,16,246,2,463,0,0,258,19,1,462,0,0,257,18,1,0,461,2,0,257,2,0,461,2,0,257,2,97,361,5,71,207,4,461,0,0,256,19,1,367,29,67,208,33,50
2017-08-14T23:59:59Z,261,466,458,255,466,261,457,254,86,65,0,0,0,0,0,0,2,464,1,260,0,463,0,258,0,0,0,0,0,0,0,0,362,19,85,200,29,62,385,81,0,213,68,1,465,1,0,261,18,1,386,80,0,214,67,1,466,0,0,261,17,1,465,0,0,260,17,1,465,0,0,261,17,1,22,442,2,18,247,2,466,0,0,261,17,1,464,1,0,260,18,1,0,464,2,0,260,2,0,464,2,0,260,2,97,367,2,70,211,2,464,0,0,259,17,1,369,32,65,209,35,49
2017-08-15T23:59:59Z,262,472,464,256,472,262,463,255,85,65,0,0,0,0,0,0,2,470,1,261,0,469,0,259,0,0,0,0,0,0,0,0,366,20,86,200,30,63,391,81,0,215,68,1,472,0,0,262,18,1,392,80,0,215,68,1,471,1,0,261,19,1,470,1,0,260,19,1,470,1,0,261,19,1,22,448,2,18,248,2,472,0,0,262,18,1,470,1,0,260,19,1,0,470,2,0,261,2,0,470,2,0,261,2,98,372,2,71,211,2,470,0,0,260,17,1,376,30,66,211,34,49
2017-08-16T23:59:58Z,261,472,464,255,472,261,463,254,85,65,0,0,0,0,0,0,2,470,1,260,0,469,0,258,0,0,0,0,0,0,0,0,364,24,84,197,33,62,389,83,0,212,70,1,469,3,0,259,19,1,393,79,0,214,68,1,471,1,0,260,19,1,469,2,0,259,20,1,470,1,0,260,19,1,23,447,2,18,249,2,472,0,0,261,18,1,471,0,0,260,18,1,3,467,2,2,259,2,0,470,2,0,260,2,99,371,2,71,211,2,467,3,0,258,19,1,375,33,64,209,36,49